Weather History for Alva, OK

Change the Weather History Date:

Saturday, June 15, 2013

  Actual Average Record
Temperature  
Mean Temperature 81 °F -  
Max Temperature 91 °F 91 °F 109 °F (1952)
Min Temperature 71 °F 65 °F 50 °F (1989)
Cooling Degree Days 16    
Growing Degree Days 31 (Base 50)    
Moisture  
Dew Point 63 °F    
Average Humidity 59    
Maximum Humidity 83    
Minimum Humidity 31    
Precipitation  
Precipitation 0.00 in - - ()
Sea Level Pressure  
Sea Level Pressure 29.94 in    
Wind  
Wind Speed 10 mph (SSW)    
Max Wind Speed 25 mph    
Max Gust Speed 37 mph    
Visibility 10 miles    
Events Rain    
Averages and records for this station are not official NWS values.
T = Trace of Precipitation, MM = Missing Value Source: NWS Daily Summary

Daily Weather History Graph

Daily Weather History Graph

Search for Another Location

Airport:

Trip Planner

Search our weather history database for the weather conditions in past years. The results will help you decide how hot, cold, wet, or windy it might be!

Date:

Astronomy

Jun. 15, 2013 Rise Set
Actual Time 6:15 AM CDT 8:55 PM CDT
Civil Twilight 5:44 AM CDT 9:26 PM CDT
Nautical Twilight 5:06 AM CDT 10:04 PM CDT
Astronomical Twilight 4:23 AM CDT 10:47 PM CDT
Moon 12:42 PM CDT (6/15) 12:40 AM CDT (6/15)
Length of Visible Light 15h 41m
Length of Day
14h 40m
Waxing Crescent, 40% of the Moon is Illuminated
Jun 15
Waxing Crescent
Jun 16
First Quarter
Jun 23
Full
Jun 29
Last Quarter
Jul 8
New

Hourly Weather History & Observations

Time (CDT) Temp. Heat Index Dew Point Humidity Pressure Visibility Wind Dir Wind Speed Gust Speed Precip Events Conditions
12:05 AM 73.4 °F - 62.6 °F 69% 29.95 in 10.0 mi SSW 6.9 mph - N/A   Clear
12:25 AM 73.4 °F - 64.4 °F 73% 29.95 in 10.0 mi South 6.9 mph - N/A   Clear
12:45 AM 73.4 °F - 62.6 °F 69% 29.95 in 10.0 mi South 5.8 mph - N/A   Clear
1:05 AM 73.4 °F - 64.4 °F 73% 29.95 in 10.0 mi South 6.9 mph - N/A   Clear
1:25 AM 73.4 °F - 64.4 °F 73% 29.95 in 10.0 mi South 6.9 mph - N/A   Clear
1:45 AM 73.4 °F - 64.4 °F 73% 29.96 in 10.0 mi South 6.9 mph - N/A   Clear
2:05 AM 73.4 °F - 64.4 °F 73% 29.95 in 10.0 mi Calm Calm - N/A   Clear
2:25 AM 73.4 °F - 62.6 °F 69% 29.95 in 10.0 mi SW 3.5 mph - N/A   Clear
2:45 AM 71.6 °F - 64.4 °F 78% 29.95 in 10.0 mi SSW 5.8 mph - N/A   Clear
3:05 AM 71.6 °F - 64.4 °F 78% 29.94 in 10.0 mi SSW 5.8 mph - N/A   Clear
3:25 AM 71.6 °F - 64.4 °F 78% 29.95 in 10.0 mi South 8.1 mph - N/A   Clear
3:45 AM 71.6 °F - 62.6 °F 73% 29.95 in 10.0 mi SW 5.8 mph - N/A   Clear
4:05 AM 71.6 °F - 62.6 °F 73% 29.95 in 10.0 mi SW 5.8 mph - N/A   Clear
4:25 AM 71.6 °F - 62.6 °F 73% 29.95 in 10.0 mi WSW 5.8 mph - N/A   Partly Cloudy
4:45 AM 71.6 °F - 62.6 °F 73% 29.95 in 10.0 mi SW 5.8 mph - N/A   Partly Cloudy
5:05 AM 71.6 °F - 64.4 °F 78% 29.95 in 10.0 mi SW 5.8 mph - N/A   Scattered Clouds
5:25 AM 71.6 °F - 62.6 °F 73% 29.96 in 10.0 mi SW 4.6 mph - N/A   Mostly Cloudy
5:45 AM 71.6 °F - 62.6 °F 73% 29.97 in 10.0 mi SW 4.6 mph - N/A   Overcast
6:05 AM 71.6 °F - 62.6 °F 73% 29.97 in 10.0 mi WSW 5.8 mph - N/A   Overcast
6:25 AM 71.6 °F - 62.6 °F 73% 29.97 in 10.0 mi SW 5.8 mph - N/A   Scattered Clouds
6:45 AM 71.6 °F - 62.6 °F 73% 29.97 in 10.0 mi WSW 5.8 mph - N/A   Clear
7:05 AM 71.6 °F - 62.6 °F 73% 29.97 in 10.0 mi SW 4.6 mph - N/A   Clear
7:25 AM 73.4 °F - 62.6 °F 69% 29.97 in 10.0 mi SW 4.6 mph - N/A   Clear
7:45 AM 75.2 °F - 62.6 °F 65% 29.97 in 10.0 mi SW 5.8 mph - N/A   Clear
8:05 AM 75.2 °F - 62.6 °F 65% 29.98 in 10.0 mi SE 6.9 mph - N/A   Clear
8:25 AM 75.2 °F - 64.4 °F 69% 29.99 in 10.0 mi SSE 5.8 mph - N/A Rain Light Rain
8:45 AM 75.2 °F - 64.4 °F 69% 29.99 in 10.0 mi South 6.9 mph - N/A Rain Light Rain
9:05 AM 75.2 °F - 64.4 °F 69% 30.00 in 10.0 mi South 10.4 mph - N/A Rain Light Rain
9:25 AM 73.4 °F - 64.4 °F 73% 29.99 in 9.0 mi SSW 9.2 mph - N/A Rain Light Rain
9:45 AM 73.4 °F - 66.2 °F 78% 30.01 in 10.0 mi SSW 11.5 mph - N/A Rain Light Rain
10:05 AM 71.6 °F - 66.2 °F 83% 30.01 in 5.0 mi SSW 13.8 mph 25.3 mph N/A Rain Light Rain
10:25 AM 71.6 °F - 66.2 °F 83% 30.00 in 10.0 mi SSW 12.7 mph 18.4 mph N/A   Clear
10:45 AM 73.4 °F - 68.0 °F 83% 30.01 in 10.0 mi SSW 13.8 mph - N/A   Scattered Clouds
11:05 AM 73.4 °F - 68.0 °F 83% 29.99 in 10.0 mi SSW 11.5 mph - N/A   Scattered Clouds
11:25 AM 75.2 °F - 66.2 °F 73% 30.00 in 10.0 mi SSW 11.5 mph - N/A   Mostly Cloudy
11:45 AM 77.0 °F - 66.2 °F 69% 29.99 in 10.0 mi SSW 15.0 mph 18.4 mph N/A   Scattered Clouds
12:05 PM 80.6 °F 83.2 °F 68.0 °F 65% 29.99 in 10.0 mi SSW 17.3 mph 27.6 mph N/A   Partly Cloudy
12:25 PM 82.4 °F 84.6 °F 66.2 °F 58% 29.97 in 10.0 mi SW 18.4 mph 26.5 mph N/A   Clear
12:45 PM 84.2 °F 86.6 °F 66.2 °F 55% 29.95 in 10.0 mi SSW 16.1 mph 20.7 mph N/A   Clear
1:05 PM 84.2 °F 85.6 °F 64.4 °F 51% 29.95 in 10.0 mi SSW 17.3 mph 24.2 mph N/A   Clear
1:25 PM 84.2 °F 85.6 °F 64.4 °F 51% 29.95 in 10.0 mi SSW 23.0 mph 28.8 mph N/A   Clear
1:45 PM 87.8 °F 88.5 °F 62.6 °F 43% 29.94 in 10.0 mi South 25.3 mph 35.7 mph N/A   Clear
2:05 PM 87.8 °F 86.5 °F 57.2 °F 35% 29.94 in 10.0 mi SSW 24.2 mph 34.5 mph N/A   Clear
2:25 PM 89.6 °F 87.7 °F 55.4 °F 31% 29.94 in 10.0 mi SSW 25.3 mph 36.8 mph N/A   Clear
2:45 PM 89.6 °F 88.1 °F 57.2 °F 33% 29.93 in 10.0 mi SSW 21.9 mph 35.7 mph N/A   Clear
3:05 PM 89.6 °F 88.1 °F 57.2 °F 33% 29.92 in 10.0 mi SW 25.3 mph 35.7 mph N/A   Clear
3:25 PM 89.6 °F 88.1 °F 57.2 °F 33% 29.92 in 10.0 mi South 23.0 mph 32.2 mph N/A   Clear
3:45 PM 91.4 °F 90.7 °F 59.0 °F 34% 29.91 in 10.0 mi SSW 25.3 mph 32.2 mph N/A   Clear
4:05 PM 91.4 °F 89.9 °F 57.2 °F 31% 29.90 in 10.0 mi SSW 19.6 mph 36.8 mph N/A   Clear
4:25 PM 91.4 °F 89.9 °F 57.2 °F 31% 29.89 in 10.0 mi SSW 20.7 mph 29.9 mph N/A   Clear
4:45 PM 91.4 °F 89.9 °F 57.2 °F 31% 29.88 in 10.0 mi SW 20.7 mph 28.8 mph N/A   Clear
5:05 PM 91.4 °F 89.9 °F 57.2 °F 31% 29.88 in 10.0 mi SSW 16.1 mph 28.8 mph N/A   Clear
5:25 PM 91.4 °F 90.7 °F 59.0 °F 34% 29.88 in 10.0 mi South 19.6 mph 28.8 mph N/A   Clear
5:45 PM 91.4 °F 89.9 °F 57.2 °F 31% 29.87 in 10.0 mi SSW 16.1 mph 27.6 mph N/A   Clear
6:05 PM 91.4 °F 89.9 °F 57.2 °F 31% 29.87 in 10.0 mi South 17.3 mph 26.5 mph N/A   Clear
6:25 PM 89.6 °F 88.1 °F 57.2 °F 33% 29.86 in 10.0 mi SSW 20.7 mph 26.5 mph N/A   Clear
6:45 PM 89.6 °F 88.1 °F 57.2 °F 33% 29.86 in 10.0 mi SSW 19.6 mph 26.5 mph N/A   Clear
7:05 PM 89.6 °F 88.9 °F 59.0 °F 36% 29.86 in 10.0 mi South 18.4 mph 24.2 mph N/A   Clear
7:25 PM 87.8 °F 87.1 °F 59.0 °F 38% 29.86 in 10.0 mi South 15.0 mph 23.0 mph N/A   Clear
7:45 PM 86.0 °F 85.4 °F 59.0 °F 40% 29.86 in 10.0 mi South 12.7 mph 21.9 mph N/A   Clear
8:05 PM 86.0 °F 86.1 °F 60.8 °F 43% 29.87 in 10.0 mi South 12.7 mph - N/A   Clear
8:25 PM 84.2 °F 85.0 °F 62.6 °F 48% 29.87 in 10.0 mi South 11.5 mph - N/A   Clear
8:45 PM 82.4 °F 83.4 °F 62.6 °F 51% 29.87 in 10.0 mi South 11.5 mph - N/A   Clear
9:05 PM 80.6 °F 81.8 °F 62.6 °F 54% 29.88 in 10.0 mi South 10.4 mph - N/A   Clear
9:25 PM 78.8 °F - 62.6 °F 57% 29.89 in 10.0 mi South 9.2 mph - N/A   Clear
9:45 PM 78.8 °F - 62.6 °F 57% 29.90 in 10.0 mi South 10.4 mph - N/A   Clear
10:05 PM 77.0 °F - 62.6 °F 61% 29.91 in 10.0 mi South 10.4 mph - N/A   Clear
10:25 PM 77.0 °F - 64.4 °F 65% 29.93 in 10.0 mi South 12.7 mph - N/A   Clear
10:45 PM 77.0 °F - 66.2 °F 69% 29.93 in 10.0 mi South 13.8 mph - N/A   Clear
11:05 PM 77.0 °F - 66.2 °F 69% 29.93 in 10.0 mi South 13.8 mph - N/A   Clear
11:25 PM 77.0 °F - 66.2 °F 69% 29.93 in 10.0 mi South 16.1 mph - N/A   Clear
11:45 PM 77.0 °F - 68.0 °F 74% 29.92 in 10.0 mi South 16.1 mph 25.3 mph N/A   Clear